Temperature
7 7 7 8 8 9 9 10 9 9 9 9 10 10 10 9 9 9 9 9 9 8 8 8 8 8 7 7 7 6 6 6 5 5 4 4 3 3
7 7 7 7 8 8 9 9 9 9 9 9 10 10 10 9 9 9 9 9 9 8 8 8 8 7 7 7 6 6 6 5 5 4 4 4 3 2
7 7 7 7 7 8 8 8 9 9 9 9 9 9 9 9 9 9 8 8 8 8 8 7 7 7 7 6 6 6 5 5 4 4 4 3 3 2
6 7 7 7 7 7 8 8 8 9 9 9 9 9 9 9 9 8 8 8 8 8 7 7 7 7 6 6 6 5 5 4 4 4 3 3 2 2
6 6 7 7 7 7 8 8 8 8 9 9 9 9 9 8 8 8 8 8 8 7 7 7 7 6 6 6 5 5 4 4 4 3 3 2 2 2
6 6 7 7 7 7 8 8 8 8 9 9 9 9 8 8 8 8 8 7 7 7 7 6 6 6 6 5 5 5 4 4 3 3 2 2 2 2
6 6 7 7 7 7 7 8 8 8 8 8 8 8 8 8 8 8 7 7 7 7 6 6 6 6 5 5 4 4 4 3 3 2 2 2 1 1
6 6 7 7 7 7 8 8 8 8 8 8 8 8 8 8 8 7 7 7 6 6 6 6 5 5 5 4 4 4 3 3 3 2 2 1 1 1
6 6 6 6 7 7 7 8 8 8 8 9 9 8 8 8 8 7 7 7 6 6 6 5 5 5 4 4 4 3 3 2 2 2 1 1 1 0
6 6 6 6 7 7 7 7 8 8 8 8 8 8 8 8 8 8 7 7 6 6 5 5 5 4 4 4 3 3 2 2 2 1 1 1 0 0
6 6 6 6 7 7 7 7 8 8 7 8 8 8 8 7 7 7 6 6 6 5 5 5 4 4 4 3 3 2 2 2 1 1 1 0 0 -0
6 6 6 7 7 7 7 7 7 7 7 7 7 7 7 7 7 7 7 6 6 5 5 4 4 3 3 3 2 2 2 1 1 1 0 -0 -0 -1
5 6 6 7 7 7 7 7 8 7 7 7 7 7 6 6 6 6 6 6 6 5 5 4 4 3 3 2 2 2 1 1 1 0 -0 -1 -1 -1
5 6 6 7 7 7 7 7 7 7 7 7 7 6 6 6 6 6 6 5 5 5 5 4 4 3 3 2 1 1 1 0 -0 -0 -1 -1 -1 -1
5 6 6 6 7 7 7 7 7 7 7 7 6 6 6 6 6 5 5 5 5 4 4 4 3 3 2 2 1 1 0 0 -1 -1 -1 -1 -1 -2
5 5 6 6 6 6 6 6 6 6 6 6 6 6 6 5 5 5 5 4 4 4 3 3 3 2 2 2 1 1 0 -0 -1 -1 -1 -1 -2 -2
5 5 5 5 5 5 6 6 6 6 6 6 6 6 5 5 5 4 4 4 4 3 3 2 2 2 2 1 1 0 -0 -1 -1 -1 -1 -2 -2 -2
5 5 4 5 5 5 5 5 5 6 6 6 6 5 5 5 4 4 4 4 4 3 3 2 2 1 1 0 0 -0 -0 -1 -1 -1 -2 -2 -2 -2
4 4 4 4 4 4 5 5 5 5 5 5 5 5 5 4 4 4 4 3 3 3 2 2 2 1 1 -0 -1 -1 -1 -1 -1 -1 -2 -2 -2 -3
4 4 4 4 4 4 4 4 5 5 5 5 5 5 4 4 4 4 3 3 3 2 2 1 1 1 1 0 -1 -1 -1 -1 -1 -2 -2 -2 -2 -3
4 4 4 4 4 4 4 4 4 4 4 4 4 4 4 4 4 3 3 3 2 2 1 1 1 0 0 -0 -1 -1 -1 -2 -2 -2 -2 -2 -3 -3
3 3 3 4 3 3 4 4 4 4 4 4 4 4 3 3 3 3 3 2 2 1 1 0 0 -0 -0 -1 -1 -1 -2 -2 -2 -3 -3 -3 -3 -3
3 3 3 3 3 3 3 4 4 4 3 3 3 3 3 3 3 2 2 2 1 1 0 0 -0 -0 -1 -1 -1 -2 -2 -2 -3 -3 -3 -3 -3 -3
Wind_Speed
14 14 12 10 10 9 9 9 9 8 9 7 7 10 10 9 11 12 12 13 14 13 12 10 9 8 7 6 6 6 6 7 7 9 11 13 14 15
13 15 13 11 10 9 9 9 9 9 8 7 6 7 9 8 10 11 11 12 13 13 12 11 10 8 7 6 6 6 6 6 7 9 11 13 14 15
15 16 15 13 11 10 10 10 9 9 8 6 5 7 10 10 9 9 9 9 9 12 12 11 10 8 7 7 6 6 5 6 7 9 11 12 14 14
16 16 16 12 14 12 11 11 10 10 9 8 6 6 9 10 9 9 7 6 7 10 11 10 9 8 7 7 6 5 5 6 7 8 10 12 13 14
16 16 16 15 15 13 13 12 10 9 9 8 7 6 6 7 8 7 7 6 5 7 9 9 9 8 7 6 5 4 4 5 7 8 9 11 12 14
15 15 16 17 17 15 13 13 11 11 9 9 8 7 7 7 7 7 6 5 5 4 5 6 7 7 7 5 4 4 4 5 6 7 9 10 11 13
14 15 15 16 16 14 12 12 12 10 9 9 9 8 7 8 9 7 7 6 4 3 3 4 4 4 5 5 5 4 4 4 5 7 8 10 11 12
13 13 13 14 14 14 13 13 13 13 13 11 9 11 11 10 9 8 7 6 4 4 3 3 3 3 3 4 3 3 3 4 5 6 8 9 10 12
12 11 10 12 14 12 11 10 10 11 13 13 12 12 12 12 11 10 9 7 4 5 4 3 3 3 2 2 3 3 2 3 4 6 7 9 10 11
12 12 12 12 14 13 11 11 11 10 10 10 10 10 10 11 11 10 9 6 4 4 3 2 2 2 1 1 2 2 2 2 4 5 7 9 10 11
9 11 12 13 15 16 13 12 11 8 7 9 9 9 11 12 11 9 8 7 4 3 2 2 2 1 1 1 1 1 1 2 3 5 7 8 9 9
7 9 12 13 15 16 14 14 14 11 10 9 9 10 9 10 10 9 9 8 5 3 3 3 3 2 1 1 0 0 1 1 3 4 6 7 9 7
5 6 8 12 14 14 14 13 15 13 11 10 9 8 7 7 6 5 5 6 6 3 5 4 3 2 2 1 0 1 1 2 2 3 4 6 8 7
4 5 7 13 14 14 13 14 17 15 10 10 9 8 8 7 6 6 6 6 5 5 7 5 3 3 2 1 1 1 2 2 2 3 3 5 6 7
2 5 8 12 14 12 15 18 15 11 10 10 9 8 7 8 8 7 8 9 9 8 6 4 4 3 2 2 1 0 1 2 2 3 4 4 4 5
3 7 10 11 10 12 13 12 9 9 10 10 9 8 8 8 7 7 6 6 6 6 6 6 4 4 3 3 2 1 1 1 2 3 3 3 4 4
5 5 6 7 7 7 8 8 8 9 9 9 9 9 9 8 7 6 5 5 5 5 4 4 6 6 4 3 2 2 1 1 2 3 3 3 4 4
6 6 6 7 7 8 8 8 8 8 8 9 9 9 9 9 7 6 5 6 7 6 5 4 4 4 3 3 3 1 1 2 2 2 2 2 3 4
6 6 6 6 6 7 7 7 7 7 8 9 9 9 9 8 8 7 7 7 7 6 5 4 3 3 4 2 2 3 1 2 2 2 3 2 3 4
4 5 6 6 6 7 7 7 7 7 8 8 9 9 9 9 8 8 7 8 7 6 5 4 3 2 3 3 1 1 4 2 2 2 3 3 3 4
3 4 5 6 6 7 7 7 7 8 8 8 8 9 8 8 8 8 7 9 8 6 6 4 2 3 3 3 4 3 3 5 4 2 2 2 3 3
3 4 5 6 6 7 7 7 8 8 8 8 8 8 7 8 9 9 8 8 6 6 6 5 4 3 3 4 5 4 3 3 5 6 5 3 2 2
3 4 5 6 6 7 7 8 9 8 8 8 8 7 7 7 7 8 8 8 8 8 7 6 5 4 4 5 5 4 4 3 3 4 4 6 5 4
Wind_Direction
218 216 218 221 222 223 217 208 206 212 215 209 205 205 200 198 185 195 203 195 199 205 206 207 212 218 227 235 249 261 274 283 292 299 302 305 308 309
217 215 217 218 217 218 218 216 219 219 219 210 209 195 188 189 186 196 202 186 195 200 202 202 204 210 218 230 244 257 268 280 292 299 303 307 309 310
217 214 215 215 214 214 215 214 215 216 214 212 206 190 187 188 185 194 195 193 194 196 198 199 201 206 214 228 239 249 262 279 291 299 305 308 309 311
215 213 212 210 213 214 213 212 211 211 209 203 198 189 192 187 180 185 187 191 192 189 195 198 201 204 214 223 233 242 261 278 291 300 306 309 311 313
216 215 212 209 212 213 212 210 209 207 204 197 193 183 183 179 176 176 183 185 182 179 187 195 199 202 209 218 225 238 259 278 291 299 305 309 313 314
217 216 214 211 211 210 211 208 205 203 196 189 183 176 176 175 175 177 184 182 177 174 183 194 194 197 205 210 215 231 257 278 291 300 307 312 315 317
218 217 215 211 212 211 209 205 200 199 191 186 184 179 177 176 184 183 187 176 174 174 181 188 188 198 203 202 205 230 258 278 295 305 311 315 317 318
215 214 210 205 206 207 203 201 200 197 194 188 188 188 187 185 181 177 177 170 177 171 184 188 186 196 198 203 201 225 254 282 300 308 313 317 319 320
211 207 207 202 196 199 192 188 194 195 194 190 188 190 186 182 177 176 180 179 174 156 170 180 178 199 190 189 182 218 253 284 305 316 319 320 321 322
208 203 199 197 196 191 188 192 193 194 188 185 185 181 178 173 175 175 169 149 115 131 162 176 172 191 177 197 169 210 251 295 318 324 325 326 327 325
204 197 195 196 188 179 179 180 177 175 160 151 148 141 141 148 154 151 151 150 153 158 167 158 153 164 186 200 143 174 244 311 330 331 333 333 334 330
200 197 193 189 182 179 181 177 174 170 158 148 138 130 138 140 146 160 162 161 152 159 165 154 143 134 165 187 186 207 254 315 328 330 335 340 346 338
193 194 190 177 175 178 179 175 167 158 155 150 143 142 141 142 146 142 145 155 155 148 156 151 146 149 142 153 220 338 347 346 339 337 339 349 353 351
188 190 179 168 166 166 168 157 148 145 147 147 143 146 146 144 136 121 105 92 89 118 141 142 139 152 140 131 151 356 351 356 349 343 347 352 353 353
174 162 154 156 155 155 153 148 147 150 150 147 149 148 143 138 127 114 100 93 82 79 95 103 123 137 135 138 119 62 358 341 346 349 350 347 345 348
124 123 123 131 143 144 145 146 149 151 150 147 144 138 133 132 130 130 127 122 102 83 64 68 92 119 111 98 110 99 42 357 340 344 344 343 350 354
127 120 122 127 128 134 138 140 141 142 140 139 139 139 136 135 133 131 127 123 119 123 106 74 71 75 76 86 89 81 61 21 360 357 356 353 360 3
128 132 130 129 130 132 135 137 139 141 141 141 142 142 142 143 137 129 124 125 125 124 121 114 106 100 97 63 40 71 41 17 8 9 10 357 360 4
125 132 132 132 133 132 134 135 135 137 137 140 141 141 139 139 139 138 133 128 125 124 123 124 120 120 120 110 61 25 29 16 14 15 13 0 349 347
122 130 133 132 132 133 132 131 129 129 132 135 135 137 139 140 140 141 140 136 131 126 123 117 114 119 128 131 117 29 22 35 29 15 6 359 356 344
113 121 127 130 130 131 131 130 129 130 131 133 133 135 138 137 137 136 135 133 128 129 131 124 106 101 102 105 97 72 40 32 32 27 12 2 1 9
113 118 124 126 131 134 134 132 129 129 131 129 129 131 136 136 135 134 135 135 129 124 118 110 110 105 92 99 97 87 63 38 37 37 29 18 3 0
117 121 126 129 132 134 134 132 131 131 131 131 130 130 129 128 129 129 129 127 125 123 118 113 102 88 86 94 96 88 78 61 55 49 41 26 21 12
Height
1393 1397 1401 1405 1409 1413 1416 1419 1422 1424 1427 1428 1432 1435 1439 1442 1445 1447 1450 1452 1454 1455 1456 1456 1457 1457 1457 1456 1455 1454 1452 1450 1448 1446 1444 1442 1439 1436
1385 1389 1394 1398 1402 1405 1409 1412 1416 1419 1420 1422 1426 1429 1433 1436 1439 1442 1445 1447 1448 1450 1451 1452 1452 1452 1452 1452 1450 1449 1448 1446 1444 1442 1440 1437 1434 1431
1377 1381 1386 1390 1394 1398 1402 1406 1409 1413 1415 1417 1421 1424 1428 1431 1434 1437 1439 1441 1443 1445 1446 1447 1448 1448 1448 1447 1446 1445 1443 1441 1440 1438 1435 1433 1430 1427
1369 1373 1377 1382 1386 1391 1395 1399 1403 1406 1409 1411 1415 1418 1422 1426 1429 1432 1434 1437 1438 1440 1441 1442 1443 1443 1443 1443 1442 1441 1439 1437 1435 1433 1431 1428 1426 1422
1361 1365 1369 1374 1378 1383 1387 1392 1396 1400 1403 1406 1409 1412 1416 1421 1424 1427 1429 1432 1434 1435 1437 1438 1438 1439 1439 1438 1437 1436 1435 1433 1431 1429 1427 1424 1421 1418
1353 1356 1360 1365 1369 1374 1379 1384 1389 1393 1397 1400 1403 1407 1411 1415 1419 1421 1424 1427 1429 1431 1432 1433 1434 1434 1435 1434 1433 1432 1431 1429 1427 1425 1423 1420 1417 1414
1344 1348 1351 1356 1361 1367 1372 1376 1381 1386 1390 1393 1396 1401 1405 1409 1412 1416 1419 1422 1424 1426 1427 1429 1430 1430 1430 1430 1429 1428 1427 1426 1424 1422 1419 1416 1413 1410
1336 1339 1344 1349 1355 1360 1365 1369 1375 1379 1383 1386 1390 1394 1398 1403 1407 1410 1414 1416 1419 1422 1423 1424 1426 1426 1426 1426 1425 1425 1424 1422 1420 1418 1415 1413 1410 1407
1329 1333 1337 1342 1348 1353 1358 1363 1368 1373 1377 1381 1384 1388 1393 1397 1401 1405 1409 1412 1414 1416 1419 1420 1422 1422 1423 1423 1422 1421 1420 1419 1417 1415 1412 1409 1406 1403
1323 1327 1331 1336 1342 1347 1352 1357 1362 1366 1371 1376 1380 1384 1389 1393 1397 1401 1405 1409 1411 1413 1416 1417 1418 1419 1419 1419 1419 1418 1417 1416 1414 1411 1409 1406 1403 1400
1317 1322 1326 1331 1336 1341 1347 1351 1356 1361 1367 1372 1377 1381 1385 1390 1394 1398 1401 1404 1407 1410 1412 1414 1415 1415 1416 1416 1416 1416 1415 1413 1411 1409 1406 1404 1401 1398
1312 1317 1322 1326 1331 1336 1341 1346 1351 1356 1362 1368 1373 1377 1382 1386 1391 1395 1397 1400 1403 1406 1408 1410 1411 1412 1413 1414 1414 1413 1412 1411 1409 1407 1404 1402 1399 1395
1308 1312 1316 1321 1327 1332 1337 1342 1347 1353 1359 1364 1369 1374 1379 1383 1387 1391 1395 1397 1400 1402 1404 1406 1408 1409 1410 1410 1411 1411 1410 1408 1407 1405 1402 1400 1397 1394
1304 1308 1312 1317 1323 1329 1335 1339 1345 1350 1356 1361 1366 1370 1375 1379 1384 1388 1392 1395 1398 1400 1402 1404 1405 1406 1407 1407 1408 1408 1408 1406 1405 1403 1401 1399 1396 1393
1302 1305 1309 1314 1320 1326 1331 1337 1342 1348 1352 1358 1362 1367 1373 1377 1382 1386 1390 1393 1396 1398 1400 1402 1404 1404 1405 1405 1406 1406 1406 1405 1404 1402 1400 1397 1395 1392
1301 1304 1308 1313 1318 1324 1329 1335 1340 1345 1350 1355 1360 1366 1371 1375 1380 1384 1387 1391 1394 1396 1399 1401 1402 1403 1404 1404 1405 1405 1404 1404 1402 1401 1399 1397 1395 1392
1300 1303 1308 1312 1317 1322 1327 1333 1338 1343 1348 1353 1358 1363 1368 1373 1378 1382 1386 1389 1391 1394 1396 1399 1400 1402 1403 1404 1404 1404 1404 1403 1402 1400 1398 1397 1395 1392
1302 1304 1308 1312 1316 1321 1326 1332 1337 1342 1347 1352 1357 1362 1367 1371 1376 1380 1384 1387 1390 1392 1395 1397 1399 1400 1402 1403 1404 1403 1403 1402 1401 1400 1398 1396 1395 1393
1303 1306 1309 1313 1318 1322 1327 1332 1336 1341 1346 1351 1356 1361 1365 1370 1374 1378 1382 1385 1388 1391 1393 1396 1397 1398 1400 1401 1403 1403 1402 1402 1401 1400 1398 1397 1395 1394
1304 1307 1311 1315 1319 1323 1327 1332 1336 1341 1346 1350 1355 1360 1365 1369 1373 1377 1380 1384 1387 1390 1392 1395 1396 1397 1398 1400 1401 1402 1402 1402 1401 1400 1399 1398 1396 1395
1306 1309 1312 1316 1320 1324 1328 1333 1337 1341 1346 1350 1355 1359 1364 1368 1372 1376 1380 1383 1386 1389 1391 1394 1396 1398 1399 1400 1401 1402 1402 1402 1402 1401 1399 1398 1396 1395
1308 1311 1314 1318 1322 1326 1330 1333 1338 1342 1346 1351 1355 1359 1364 1368 1372 1375 1379 1382 1385 1388 1391 1393 1395 1397 1398 1399 1400 1401 1402 1403 1402 1401 1400 1399 1398 1396
1309 1312 1315 1319 1323 1327 1330 1334 1338 1343 1347 1351 1355 1360 1364 1368 1372 1375 1379 1382 1384 1387 1390 1392 1395 1396 1398 1399 1400 1401 1402 1403 1403 1402 1402 1401 1400 1399